Regional Weather Roundup
Issued by NWS

Home | Current Version | Previous Version | Text Only | Print | Product List | Glossary Off
Versions: 1 2 3 4 5 6 7 8 9 10 11 12 13 14 15 16 17 18 19 20 21 22 23 24 25 26 27 28 29 30 31 32 33 34 35 36 37 38 39 40 41 42 43 44 45 46 47 48 49 50

000
ASUS43 KLSX 032110
RWRMO

WEATHER SUMMARY FOR MISSOURI
NATIONAL WEATHER SERVICE SPRINGFIELD MO
400 PM CDT MON AUG 03 2015

NOTE: "FAIR" INDICATES FEW OR NO CLOUDS BELOW 12,000 FEET WITH NO
       SIGNIFICANT WEATHER AND/OR OBSTRUCTIONS TO VISIBILITY.
       CURRENT SKY AND/OR WEATHER CONDITIONS ARE NOT AVAILABLE FOR
       CHILLICOTHE AND FARMINGTON.

MOZ001>031-035>038-043-044-053-054-032200-
...NORTHERN AND WESTERN MISSOURI...

CITY           SKY/WX    TMP DP  RH WIND       PRES   REMARKS
KANSAS CTY INT MOSUNNY   84  69  60 E12       29.93F
KANSAS C DTWN  SUNNY     87  69  54 E10       29.91F HX  91
LEE`S SUMMIT   SUNNY     87  71  58 E9        29.94F HX  93
ST JOSEPH      MOSUNNY   83  72  69 E10       29.92F
CHILLICOTHE      N/A     81  65  58 SE6       29.96F
KIRKSVILLE     RAIN      74  66  76 SW6       29.96F

$$
MOZ066>068-077>081-088>096-101>105-032200-
...SOUTHWEST MISSOURI...

CITY           SKY/WX    TMP DP  RH WIND       PRES   REMARKS
SPRINGFIELD    MOSUNNY   92  62  36 W7        29.96F HX  92
JOPLIN         MOSUNNY   94  62  34 SW9       29.94F HX  94

$$
MOZ032>034-039>042-045>050-055>058-069>072-032200-
...CENTRAL MISSOURI...

CITY           SKY/WX    TMP DP  RH WIND       PRES   REMARKS
COLUMBIA       MOSUNNY   88  67  49 VRB3      29.95F HX  91
JEFFERSON CITY MOSUNNY   87  66  49 W8        29.93F
ROLLA          PTSUNNY   87  69  54 NW9       29.95F HX  91
SEDALIA        MOSUNNY   87  68  52 NE7       29.96F HX  90
WHITEMAN AFB   MOSUNNY   87  69  54 E7        29.93F HX  91
WARRENSBURG    SUNNY     86  68  54 NE9       29.93F
OSAGE BEACH    PTSUNNY   88  70  55 NE9       29.95S HX  92

$$
MOZ051-052-059>065-032200-
...EAST CENTRAL MISSOURI...

CITY           SKY/WX    TMP DP  RH WIND       PRES   REMARKS
ST LOUIS INTL  PTSUNNY   93  68  43 NW7       29.92F HX  97
SPIRIT OF STL  PTSUNNY   90  68  48 W6        29.91S HX  94
ST CHARLES     PTSUNNY   88  67  49 N10       29.91S HX  91

$$
MOZ072>076-082>087-097>100-106>115-032200-
...SOUTH CENTRAL AND SOUTHEAST MISSOURI...

CITY           SKY/WX    TMP DP  RH WIND       PRES   REMARKS
CAPE GIRARDEAU MOSUNNY   93  71  48 VRB5      29.89F HX 100
FARMINGTON     PTSUNNY   88  68  51 W7        29.98S HX  91
POPLAR BLUFF   SUNNY     94  68  42 SW8       29.89F HX  98
WEST PLAINS    MOSUNNY   90  63  40 W7        29.98S HX  91

$$



USA.gov is the U.S. government's official web portal to all federal, state and local government web resources and services.